H1 CPF 2 NER 2024 6 25 9 177 01 glonass107 H2 0706501 9107 32393 2024 6 25 0 0 0 2024 6 28 23 45 0 900 1 1 0 0 0 1 H9 10 0 60486 0.00000 0 6339322.650 10175242.810 22507110.366 10 0 60486 900.00000 0 4973164.291 12533812.191 21644425.085 10 0 60486 1800.00000 0 3839950.704 14866644.832 20361053.166 10 0 60486 2700.00000 0 2949101.511 17107142.175 18681944.707 10 0 60486 3600.00000 0 2297672.192 19189683.448 16639742.828 10 0 60486 4500.00000 0 1870698.104 21052224.424 14274148.714 10 0 60486 5400.00000 0 1642053.663 22638762.963 11631148.925 10 0 60486 6300.00000 0 1575789.376 23901568.404 8762119.899 10 0 60486 7200.00000 0 1627889.302 24803081.657 5722827.066 10 0 60486 8100.00000 0 1748373.692 25317406.575 2572338.213 10 0 60486 9000.00000 0 1883656.968 25431330.266 -628127.519 10 0 60486 9900.00000 0 1979060.446 25144829.860 -3816392.169 10 0 60486 10800.00000 0 1981372.617 24471044.819 -6930529.378 10 0 60486 11700.00000 0 1841347.974 23435716.433 -9910068.777 10 0 60486 12600.00000 0 1516038.006 22076118.519 -12697170.514 10 0 60486 13500.00000 0 970855.257 20439524.693 -15237746.974 10 0 60486 14400.00000 0 181282.754 18581276.845 -17482509.913 10 0 60486 15300.00000 0 -865843.805 16562536.034 -19387922.908 10 0 60486 16200.00000 0 -2171535.688 14447809.957 -20917041.116 10 0 60486 17100.00000 0 -3724366.895 12302360.166 -22040222.643 10 0 60486 18000.00000 0 -5500718.774 10189596.882 -22735698.420 10 0 60486 18900.00000 0 -7465544.162 8168569.424 -22989990.218 10 0 60486 19800.00000 0 -9573620.203 6291655.998 -22798169.268 10 0 60486 20700.00000 0 -11771238.666 4602548.129 -22163950.858 10 0 60486 21600.00000 0 -13998264.467 3134612.626 -21099623.231 10 0 60486 22500.00000 0 -16190477.813 1909698.265 -19625812.007 10 0 60486 23400.00000 0 -18282103.416 937435.927 -17771084.379 10 0 60486 24300.00000 0 -20208422.301 215060.444 -15571400.147 10 0 60486 25200.00000 0 -21908358.007 -272239.275 -13069419.561 10 0 60486 26100.00000 0 -23326929.698 -550457.246 -10313680.703 10 0 60486 27000.00000 0 -24417469.868 -655431.457 -7357661.734 10 0 60486 27900.00000 0 -25143513.894 -631085.864 -4258745.694 10 0 60486 28800.00000 0 -25480282.037 -527327.993 -1077107.724 10 0 60486 29700.00000 0 -25415691.433 -397691.434 2125453.730 10 0 60486 30600.00000 0 -24950855.187 -296823.482 5286718.876 10 0 60486 31500.00000 0 -24100047.196 -277924.854 8345257.932 10 0 60486 32400.00000 0 -22890133.787 -390250.573 11241627.909 10 0 60486 33300.00000 0 -21359495.754 -676778.632 13919531.071 10 0 60486 34200.00000 0 -19556485.812 -1172145.968 16326912.100 10 0 60486 35100.00000 0 -17537486.064 -1900940.002 18416972.293 10 0 60486 36000.00000 0 -15364646.777 -2876418.938 20149080.941 10 0 60486 36900.00000 0 -13103401.104 -4099715.915 21489566.086 10 0 60486 37800.00000 0 -10819859.580 -5559561.646 22412369.421 10 0 60486 38700.00000 0 -8578193.058 -7232538.392 22899552.790 10 0 60486 39600.00000 0 -6438113.075 -9083855.725 22941646.649 10 0 60486 40500.00000 0 -4452554.338 -11068616.655 22537833.919 10 0 60486 41400.00000 0 -2665655.395 -13133522.123 21695965.765 10 0 60486 42300.00000 0 -1111121.011 -15218943.390 20432409.020 10 0 60486 43200.00000 0 188966.302 -17261276.388 18771728.123 10 0 60486 44100.00000 0 1224837.008 -19195480.159 16746207.570 10 0 60486 45000.00000 0 1999199.773 -20957693.560 14395223.977 10 0 60486 45900.00000 0 2526875.527 -22487820.995 11764479.758 10 0 60486 46800.00000 0 2833917.032 -23731978.988 8905113.192 10 0 60486 47700.00000 0 2956252.295 -24644701.079 5872702.210 10 0 60486 48600.00000 0 2937910.236 -25190808.549 2726181.412 10 0 60486 49500.00000 0 2828904.717 -25346868.435 -473306.363 10 0 60486 50400.00000 0 2682867.384 -25102177.635 -3663601.133 10 0 60486 51300.00000 0 2554530.432 -24459231.849 -6782735.933 10 0 60486 52200.00000 0 2497166.593 -23433659.835 -9770142.101 10 0 60486 53100.00000 0 2560095.339 -22053625.948 -12567825.836 10 0 60486 54000.00000 0 2786361.340 -20358726.290 -15121493.022 10 0 60486 54900.00000 0 3210683.728 -18398424.910 -17381600.472 10 0 60486 55800.00000 0 3857763.121 -16230095.701 -19304313.401 10 0 60486 56700.00000 0 4741018.188 -13916751.819 -20852350.995 10 0 60486 57600.00000 0 5861805.371 -11524557.202 -21995704.315 10 0 60486 58500.00000 0 7209155.100 -9120223.586 -22712213.253 10 0 60486 59400.00000 0 8760036.277 -6768400.783 -22987992.067 10 0 60486 60300.00000 0 10480138.794 -4529167.971 -22817695.834 10 0 60486 61200.00000 0 12325142.332 -2455729.417 -22204623.022 10 0 60486 62100.00000 0 14242419.476 -592409.336 -21160652.370 10 0 60486 63000.00000 0 16173103.159 1026971.827 -19706015.171 10 0 60486 63900.00000 0 18054433.125 2380273.183 -17868907.022 10 0 60486 64800.00000 0 19822284.372 3457713.347 -15684946.001 10 0 60486 65700.00000 0 21413772.709 4262027.154 -13196487.099 10 0 60486 66600.00000 0 22769828.945 4808093.477 -10451805.521 10 0 60486 67500.00000 0 23837634.253 5122050.583 -7504164.048 10 0 60486 68400.00000 0 24572814.651 5239936.907 -4410782.080 10 0 60486 69300.00000 0 24941302.325 5205915.143 -1231726.125 10 0 60486 70200.00000 0 24920785.180 5070155.158 1971256.800 10 0 60486 71100.00000 0 24501683.214 4886465.795 5135940.017 10 0 60486 72000.00000 0 23687609.995 4709776.307 8200828.593 10 0 60486 72900.00000 0 22495299.225 4593574.688 11106357.305 10 0 60486 73800.00000 0 20953998.859 4587412.025 13796051.445 10 0 60486 74700.00000 0 19104357.697 4734579.234 16217627.372 10 0 60486 75600.00000 0 16996850.712 5070055.270 18324011.162 10 0 60486 76500.00000 0 14689808.708 5618814.350 20074255.323 10 0 60486 77400.00000 0 12247134.514 6394564.524 21434335.717 10 0 60486 78300.00000 0 9735800.821 7398971.715 22377813.304 10 0 60486 79200.00000 0 7223233.852 8621402.798 22886348.039 10 0 60486 80100.00000 0 4774691.599 10039199.494 22950055.136 10 0 60486 81000.00000 0 2450745.430 11618472.472 22567696.997 10 0 60486 81900.00000 0 304969.385 13315383.242 21746707.172 10 0 60486 82800.00000 0 -1618067.285 15077860.879 20503045.936 10 0 60486 83700.00000 0 -3284421.536 16847682.316 18860890.183 10 0 60486 84600.00000 0 -4671945.281 18562829.604 16852163.498 10 0 60486 85500.00000 0 -5770953.793 20160025.695 14515915.315 10 0 60487 0.00000 0 -6584366.986 21577342.558 11897561.305 10 0 60487 900.00000 0 -7127319.365 22756772.993 9047998.140 10 0 60487 1800.00000 0 -7426255.398 23646656.251 6022613.430 10 0 60487 2700.00000 0 -7517551.149 24203857.980 2880205.551 10 0 60487 3600.00000 0 -7445720.463 24395610.701 -318161.932 10 0 60487 4500.00000 0 -7261283.132 24200938.075 -3510349.871 10 0 60487 5400.00000 0 -7018386.105 23611602.746 -6634353.384 10 0 60487 6300.00000 0 -6772279.294 22632537.845 -9629507.971 10 0 60487 7200.00000 0 -6576753.474 21281743.948 -12437668.068 10 0 60487 8100.00000 0 -6481649.197 19589655.823 -15004334.928 10 0 60487 9000.00000 0 -6530542.439 17598005.446 -17279711.969 10 0 60487 9900.00000 0 -6758704.976 15358228.869 -19219667.254 10 0 60487 10800.00000 0 -7191425.760 12929483.318 -20786584.914 10 0 60487 11700.00000 0 -7842764.205 10376356.980 -21950089.571 10 0 60487 12600.00000 0 -8714788.095 7766366.447 -22687630.403 10 0 60487 13500.00000 0 -9797328.514 5167345.321 -22984914.200 10 0 60487 14400.00000 0 -11068262.595 2644831.661 -22836179.626 10 0 60487 15300.00000 0 -12494312.943 259561.911 -22244307.743 10 0 60487 16200.00000 0 -14032331.057 -1934825.720 -21220766.867 10 0 60487 17100.00000 0 -15631011.997 -3893784.160 -19785392.688 10 0 60487 18000.00000 0 -17232969.479 -5583464.906 -17966007.599 10 0 60487 18900.00000 0 -18777085.439 -6981874.224 -15797886.064 10 0 60487 19800.00000 0 -20201036.506 -8079530.959 -13323075.686 10 0 60487 20700.00000 0 -21443892.042 -8879599.432 -10589586.491 10 0 60487 21600.00000 0 -22448675.160 -9397492.734 -7650463.483 10 0 60487 22500.00000 0 -23164779.246 -9659963.881 -4562759.972 10 0 60487 23400.00000 0 -23550138.259 -9703723.727 -1386431.344 10 0 60487 24300.00000 0 -23573059.085 -9573644.549 1816829.301 10 0 60487 25200.00000 0 -23213638.225 -9320625.729 4984790.894 10 0 60487 26100.00000 0 -22464702.434 -8999212.350 8055895.829 10 0 60487 27000.00000 0 -21332232.879 -8665068.016 10970459.099 10 0 60487 27900.00000 0 -19835254.145 -8372409.459 13671831.365 10 0 60487 28800.00000 0 -18005191.940 -8171512.095 16107502.869 10 0 60487 29700.00000 0 -15884725.698 -8106392.677 18230126.424 10 0 60487 30600.00000 0 -13526183.542 -8212767.630 19998439.402 10 0 60487 31500.00000 0 -10989546.171 -8516373.932 21378066.758 10 0 60487 32400.00000 0 -8340142.603 -9031724.019 22342189.570 10 0 60487 33300.00000 0 -5646133.380 -9761347.841 22872066.317 10 0 60487 34200.00000 0 -2975885.721 -10695554.628 22957396.964 10 0 60487 35100.00000 0 -395349.344 -11812725.041 22596522.983 10 0 60487 36000.00000 0 2034458.414 -13080122.080 21796459.560 10 0 60487 36900.00000 0 4259754.162 -14455187.314 20572759.357 10 0 60487 37800.00000 0 6235981.729 -15887268.522 18949210.411 10 0 60487 38700.00000 0 7929414.984 -17319706.699 16957373.832 10 0 60487 39600.00000 0 9318304.395 -18692195.072 14635970.102 10 0 60487 40500.00000 0 10393520.542 -19943311.230 12030125.668 10 0 60487 41400.00000 0 11158668.968 -21013115.960 9190494.349 10 0 60487 42300.00000 0 11629672.820 -21845709.380 6172270.635 10 0 60487 43200.00000 0 11833842.230 -22391636.604 3034114.189 10 0 60487 44100.00000 0 11808470.930 -22610041.359 -162993.261 10 0 60487 45000.00000 0 11599020.597 -22470476.540 -3356935.994 10 0 60487 45900.00000 0 11256970.707 -21954295.128 -6485673.767 10 0 60487 46800.00000 0 10837425.817 -21055562.621 -9488448.739 10 0 60487 47700.00000 0 10396582.187 -19781452.288 -12306965.969 10 0 60487 48600.00000 0 9989161.491 -18152106.397 -14886524.341 10 0 60487 49500.00000 0 9665920.441 -16199968.972 -17177075.959 10 0 60487 50400.00000 0 9471341.703 -13968617.735 -19134193.610 10 0 60487 51300.00000 0 9441603.600 -11511143.745 -20719927.962 10 0 60487 52200.00000 0 9602914.130 -8888145.874 -21903538.478 10 0 60487 53100.00000 0 9970279.417 -6165423.143 -22662084.532 10 0 60487 54000.00000 0 10546758.362 -3411460.189 -22980865.965 10 0 60487 54900.00000 0 11323234.992 -694809.446 -22853705.153 10 0 60487 55800.00000 0 12278718.320 1918522.198 -22283065.514 10 0 60487 56700.00000 0 13381157.632 4367574.915 -21280004.343 10 0 60487 57600.00000 0 14588739.650 6598722.932 -19863960.801 10 0 60487 58500.00000 0 15851613.897 8567653.084 -18062382.852 10 0 60487 59400.00000 0 17113974.685 10240953.793 -15910199.799 10 0 60487 60300.00000 0 18316413.067 11597249.320 -13449150.015 10 0 60487 61200.00000 0 19398440.596 12627832.902 -10726976.193 10 0 60487 62100.00000 0 20301079.198 13336773.169 -7796503.104 10 0 60487 63000.00000 0 20969408.398 13740490.183 -4714615.239 10 0 60487 63900.00000 0 21354962.520 13866819.588 -1541153.934 10 0 60487 64800.00000 0 21417876.516 13753604.934 1662244.692 10 0 60487 65700.00000 0 21128689.365 13446878.105 4833348.279 10 0 60487 66600.00000 0 20469728.236 12998705.267 7910539.586 10 0 60487 67500.00000 0 19436014.150 12464789.905 10834016.700 10 0 60487 68400.00000 0 18035649.970 11901934.826 13546958.317 10 0 60487 69300.00000 0 16289673.404 11365471.012 15996630.954 10 0 60487 70200.00000 0 14231380.155 10906762.467 18135416.246 10 0 60487 71100.00000 0 11905144.682 10570893.003 19921738.200 10 0 60487 72000.00000 0 9364787.102 10394633.039 21320872.276 10 0 60487 72900.00000 0 6671553.742 10404772.587 22305620.711 10 0 60487 73800.00000 0 3891794.856 10616891.057 22856841.142 10 0 60487 74700.00000 0 1094435.730 11034616.024 22963818.471 10 0 60487 75600.00000 0 -1651654.249 11649402.479 22624472.951 10 0 60487 76500.00000 0 -4280285.713 12440842.186 21845400.599 10 0 60487 77400.00000 0 -6730458.138 13377490.444 20641745.144 10 0 60487 78300.00000 0 -8948649.754 14418175.790 19036903.944 10 0 60487 79200.00000 0 -10890794.006 15513737.832 17062073.380 10 0 60487 80100.00000 0 -12523861.088 16609120.291 14755642.353 10 0 60487 81000.00000 0 -13826979.538 17645731.255 12162445.442 10 0 60487 81900.00000 0 -14792052.136 18563971.237 9332890.095 10 0 60487 82800.00000 0 -15423841.432 19305822.376 6321974.792 10 0 60487 83700.00000 0 -15739522.646 19817389.365 3188217.391 10 0 60487 84600.00000 0 -15767723.964 20051284.606 -7485.233 10 0 60487 85500.00000 0 -15547095.957 19968756.556 -3203043.682 10 0 60488 0.00000 0 -15124471.658 19541471.122 -6336384.821 10 0 60488 900.00000 0 -14552695.803 18752870.245 -9346660.578 10 0 60488 1800.00000 0 -13888216.398 17599050.662 -12175428.659 10 0 60488 2700.00000 0 -13188540.255 16089124.659 -14767787.600 10 0 60488 3600.00000 0 -12509660.911 14245047.704 -17073439.894 10 0 60488 4500.00000 0 -11903567.495 12100919.559 -19047664.393 10 0 60488 5400.00000 0 -11415939.586 9701787.584 -20652179.283 10 0 60488 6300.00000 0 -11084125.023 7102001.600 -21855879.480 10 0 60488 7200.00000 0 -10935485.475 4363188.195 -22635434.804 10 0 60488 8100.00000 0 -10986179.049 1551927.936 -22975738.045 10 0 60488 9000.00000 0 -11240430.837 -1262768.943 -22870194.837 10 0 60488 9900.00000 0 -11690321.916 -4012084.561 -22320850.127 10 0 60488 10800.00000 0 -12316105.677 -6630005.438 -21338349.012 10 0 60488 11700.00000 0 -13087038.455 -9055817.307 -19941732.610 10 0 60488 12600.00000 0 -13962689.948 -11236380.188 -18158072.605 10 0 60488 13500.00000 0 -14894678.894 -13128090.284 -16021951.035 10 0 60488 14400.00000 0 -15828761.606 -14698447.983 -13574794.718 10 0 60488 15300.00000 0 -16707186.017 -15927167.528 -10864076.559 10 0 60488 16200.00000 0 -17471212.505 -16806782.744 -7942398.572 10 0 60488 17100.00000 0 -18063695.501 -17342724.223 -4866473.899 10 0 60488 18000.00000 0 -18431616.944 -17552865.311 -1696027.316 10 0 60488 18900.00000 0 -18528464.407 -17466556.593 1507364.504 10 0 60488 19800.00000 0 -18316352.949 -17123190.050 4681470.328 10 0 60488 20700.00000 0 -17767800.355 -16570353.976 7764615.635 10 0 60488 21600.00000 0 -16867079.904 -15861656.998 10696883.901 10 0 60488 22500.00000 0 -15611092.515 -15054313.625 13421284.042 10 0 60488 23400.00000 0 -14009720.410 -14206593.716 15884860.876 10 0 60488 24300.00000 0 -12085646.221 -13375244.060 18039726.679 10 0 60488 25200.00000 0 -9873643.981 -12612991.191 19843993.615 10 0 60488 26100.00000 0 -7419370.632 -11966231.134 21262588.840 10 0 60488 27000.00000 0 -4777707.587 -11473003.631 22267936.571 10 0 60488 27900.00000 0 -2010720.647 -11161336.307 22840494.034 10 0 60488 28800.00000 0 814677.476 -11048028.560 22969131.114 10 0 60488 29700.00000 0 3629265.495 -11137926.315 22651346.539 10 0 60488 30600.00000 0 6364147.872 -11423718.174 21893316.521 10 0 60488 31500.00000 0 8953376.204 -11886261.474 20709774.936 10 0 60488 32400.00000 0 11336449.391 -12495424.519 19123727.281 10 0 60488 33300.00000 0 13460589.207 -13211409.514 17166003.769 10 0 60488 34200.00000 0 15282697.230 -13986500.419 14874660.029 10 0 60488 35100.00000 0 16770912.326 -14767161.994 12294236.824 10 0 60488 36000.00000 0 17905704.507 -15496401.367 9474893.008 10 0 60488 36900.00000 0 18680460.364 -16116292.229 6471428.568 10 0 60488 37800.00000 0 19101536.598 -16570554.783 3342216.854 10 0 60488 38700.00000 0 19187780.548 -16807082.063 148067.006 10 0 60488 39600.00000 0 18969539.017 -16780305.429 -3048960.858 10 0 60488 40500.00000 0 18487198.332 -16453298.833 -6186764.208 10 0 60488 41400.00000 0 17789318.211 -15799532.452 -9204406.466 10 0 60488 42300.00000 0 16930439.091 -14804201.189 -12043301.237 10 0 60488 43200.00000 0 15968656.162 -13465071.476 -14648349.167 10 0 60488 44100.00000 0 14963062.909 -11792810.210 -16969005.332 10 0 60488 45000.00000 0 13971172.184 -9810781.348 -18960256.539 10 0 60488 45900.00000 0 13046423.428 -7554318.052 -20583490.055 10 0 60488 46800.00000 0 12235880.699 -5069500.023 -21807237.438 10 0 60488 47700.00000 0 11578217.908 -2411486.237 -22607779.756 10 0 60488 48600.00000 0 11102075.341 357528.418 -22969603.129 10 0 60488 49500.00000 0 10824855.948 3170648.684 -22885696.413 10 0 60488 50400.00000 0 10752011.387 5958810.683 -22357685.645 10 0 60488 51300.00000 0 10876847.397 8653405.957 -21395802.899 10 0 60488 52200.00000 0 11180856.434 11188890.019 -20018690.064 10 0 60488 53100.00000 0 11634563.577 13505268.188 -18253041.034 10 0 60488 54000.00000 0 12198850.241 15550356.459 -16133088.752 10 0 60488 54900.00000 0 12826700.308 17281724.244 -13699946.368 10 0 60488 55800.00000 0 13465295.413 18668238.826 -11000814.596 10 0 60488 56700.00000 0 14058371.373 19691147.719 -8088070.040 10 0 60488 57600.00000 0 14548736.495 20344654.258 -5018251.614 10 0 60488 58500.00000 0 14880845.422 20635962.774 -1850964.503 10 0 60488 59400.00000 0 15003319.533 20584791.902 1352277.184 10 0 60488 60300.00000 0 14871306.928 20222376.943 4529246.435 10 0 60488 61200.00000 0 14448581.516 19590003.654 7618214.453 10 0 60488 62100.00000 0 13709291.631 18737135.713 10559152.903 10 0 60488 63000.00000 0 12639283.250 17719215.204 13294903.480 10 0 60488 63900.00000 0 11236940.828 16595229.311 15772291.571 10 0 60488 64800.00000 0 9513509.045 15425146.157 17943162.042 10 0 60488 65700.00000 0 7492880.667 14267328.189 19765316.844 10 0 60488 66600.00000 0 5210858.159 13176032.244 21203336.126 10 0 60488 67500.00000 0 2713918.762 12199101.663 22229267.018 10 0 60488 68400.00000 0 57533.509 11375947.459 22823166.897 10 0 60488 69300.00000 0 -2695890.657 10735903.325 22973490.776 10 0 60488 70200.00000 0 -5479360.865 10297023.353 22677315.556 10 0 60488 71100.00000 0 -8223843.407 10065372.665 21940396.861 10 0 60488 72000.00000 0 -10860898.770 10034840.438 20777057.425 10 0 60488 72900.00000 0 -13325297.648 10187482.774 19209909.098 10 0 60488 73800.00000 0 -15557509.759 10494380.628 17269413.675 10 0 60488 74700.00000 0 -17505962.321 10916976.301 14993290.858 10 0 60488 75600.00000 0 -19128974.713 11408831.775 12425784.628 10 0 60488 76500.00000 0 -20396289.158 11917734.357 9616802.073 10 0 60488 77400.00000 0 -21290134.136 12388060.295 6620941.424 10 0 60488 78300.00000 0 -21805776.793 12763296.046 3496428.255 10 0 60488 79200.00000 0 -21951542.073 12988610.101 303980.785 10 0 60488 80100.00000 0 -21748298.692 13013366.066 -2894373.213 10 0 60488 81000.00000 0 -21228434.618 12793470.137 -6036504.442 10 0 60488 81900.00000 0 -20434366.146 12293453.165 -9061391.084 10 0 60488 82800.00000 0 -19416644.269 11488198.732 -11910304.836 10 0 60488 83700.00000 0 -18231738.911 10364243.746 -14527950.652 10 0 60488 84600.00000 0 -16939594.865 8920596.096 -16863538.045 10 0 60488 85500.00000 0 -15601062.660 7169034.317 -18871763.258 10 0 60489 0.00000 0 -14275312.538 5133876.152 -20513683.542 10 0 60489 900.00000 0 -13017339.317 2851223.716 -21757467.980 10 0 60489 1800.00000 0 -11875664.145 367718.662 -22579008.833 10 0 60489 2700.00000 0 -10890326.600 -2261145.342 -22962385.208 10 0 60489 3600.00000 0 -10091252.287 -4973081.064 -22900168.389 10 0 60489 4500.00000 0 -9497062.866 -7701353.639 -22393564.302 10 0 60489 5400.00000 0 -9114377.746 -10377317.556 -21452390.410 10 0 60489 6300.00000 0 -8937636.077 -12933040.518 -20094887.440 10 0 60489 7200.00000 0 -8949446.056 -15303906.231 -18347369.284 10 0 60489 8100.00000 0 -9121446.553 -17431088.976 -16243717.357 10 0 60489 9000.00000 0 -9415644.702 -19263797.831 -13824728.552 10 0 60489 9900.00000 0 -9786173.130 -20761197.752 -11137328.758 10 0 60489 10800.00000 0 -10181392.780 -21893927.857 -8233666.538 10 0 60489 11700.00000 0 -10546252.625 -22645153.899 -5170104.033 10 0 60489 12600.00000 0 -10824806.475 -23011111.138 -2006124.397 10 0 60489 13500.00000 0 -10962780.271 -23001115.092 1196823.124 10 0 60489 14400.00000 0 -10910080.822 -22637039.973 4376517.919 10 0 60489 15300.00000 0 -10623139.243 -21952286.944 7471178.971 10 0 60489 16200.00000 0 -10066989.120 -20990285.922 10420668.091 10 0 60489 17100.00000 0 -9216990.577 -19802594.263 13167661.591 10 0 60489 18000.00000 0 -8060126.261 -18446672.736 15658767.123 10 0 60489 18900.00000 0 -6595813.362 -16983432.665 17845563.671 10 0 60489 19800.00000 0 -4836196.149 -15474657.724 19685544.280 10 0 60489 20700.00000 0 -2805905.390 -13980408.941 21142943.134 10 0 60489 21600.00000 0 -541293.450 -12556521.999 22189431.042 10 0 60489 22500.00000 0 1910824.212 -11252301.797 22804665.984 10 0 60489 23400.00000 0 4494869.697 -10108510.818 22976688.261 10 0 60489 24300.00000 0 7148575.618 -9155735.266 22702152.800 10 0 60489 25200.00000 0 9805344.898 -8413197.018 21986394.227 10 0 60489 26100.00000 0 12396799.962 -7888060.644 20843323.463 10 0 60489 27000.00000 0 14855415.896 -7575263.898 19295157.795 10 0 60489 27900.00000 0 17117128.520 -7457878.132 17371989.436 10 0 60489 28800.00000 0 19123809.215 -7507982.766 15111200.744 10 0 60489 29700.00000 0 20825503.728 -7688016.293 12556737.212 10 0 60489 30600.00000 0 22182341.934 -7952546.189 9758252.165 10 0 60489 31500.00000 0 23166039.147 -8250382.352 6770139.760 10 0 60489 32400.00000 0 23760926.629 -8526944.101 3650475.183 10 0 60489 33300.00000 0 23964468.720 -8726779.977 459882.872 10 0 60489 34200.00000 0 23787245.544 -8796133.090 -2739644.772 10 0 60489 35100.00000 0 23252402.818 -8685442.775 -5885954.780 10 0 60489 36000.00000 0 22394592.691 -8351676.101 -8917943.150 10 0 60489 36900.00000 0 21258450.967 -7760389.989 -11776742.563 10 0 60489 37800.00000 0 19896675.500 -6887436.231 -14406864.951 10 0 60489 38700.00000 0 18367787.104 -5720236.827 -16757276.647 10 0 60489 39600.00000 0 16733667.452 -4258575.279 -18782385.389 10 0 60489 40500.00000 0 15056977.432 -2514869.823 -20442920.393 10 0 60489 41400.00000 0 13398564.091 -513916.345 -21706689.043 10 0 60489 42300.00000 0 11814964.400 1707889.209 -22549196.114 10 0 60489 43200.00000 0 10356109.696 4103817.455 -22954114.309 10 0 60489 44100.00000 0 9063325.993 6618509.546 -22913597.551 10 0 60489 45000.00000 0 7967712.888 9190048.726 -22428431.450 10 0 60489 45900.00000 0 7088967.861 11752314.494 -21508018.247 10 0 60489 46800.00000 0 6434704.238 14237522.712 -20170196.495 10 0 60489 47700.00000 0 6000290.573 16578847.117 -18440898.680 10 0 60489 48600.00000 0 5769217.469 18713014.203 -16353652.918 10 0 60489 49500.00000 0 5713975.925 20582764.251 -13948937.731 10 0 60489 50400.00000 0 5797409.915 22139076.554 -11273401.734 10 0 60489 51300.00000 0 5974485.948 23343066.390 -8378962.716 10 0 60489 52200.00000 0 6194404.781 24167474.729 -5321803.066 10 0 60489 53100.00000 0 6402965.852 24597688.407 -2161280.755 10 0 60489 54000.00000 0 6545084.182 24632248.059 1041223.081 10 0 60489 54900.00000 0 6567352.841 24282822.491 4223497.482 10 0 60489 55800.00000 0 6420541.913 23573650.564 7323712.356 10 0 60489 56700.00000 0 6061927.477 22540474.116 10281622.633 10 0 60489 57600.00000 0 5457351.143 21229006.873 13039741.957 10 0 60489 58500.00000 0 4582922.043 19693003.891 15544462.676 10 0 60489 59400.00000 0 3426288.250 17992012.825 17747100.005 10 0 60489 60300.00000 0 1987422.744 16188901.652 19604839.864 10 0 60489 61200.00000 0 278889.581 14347266.722 21081571.933 10 0 60489 62100.00000 0 -1674422.273 12528829.864 22148591.795 10 0 60489 63000.00000 0 -3836087.574 10790933.468 22785158.773 10 0 60489 63900.00000 0 -6159424.119 9184238.209 22978898.786 10 0 60489 64800.00000 0 -8589210.461 7750719.336 22726044.692 10 0 60489 65700.00000 0 -11063771.371 6522044.790 22031509.532 10 0 60489 66600.00000 0 -13517344.945 5518402.340 20908791.332 10 0 60489 67500.00000 0 -15882633.444 4747824.014 19379711.202 10 0 60489 68400.00000 0 -18093432.149 4206035.251 17473989.658 10 0 60489 69300.00000 0 -20087227.020 3876834.127 15228669.123 10 0 60489 70200.00000 0 -21807653.106 3732983.773 12687393.624 10 0 60489 71100.00000 0 -23206711.289 3737579.410 9899559.440 10 0 60489 72000.00000 0 -24246650.840 3845831.478 6919353.186 10 0 60489 72900.00000 0 -24901439.238 4007188.609 3804696.110 10 0 60489 73800.00000 0 -25157757.916 4167709.904 616115.341 10 0 60489 74700.00000 0 -25015482.526 4272585.294 -2584435.531 10 0 60489 75600.00000 0 -24487628.036 4268696.567 -5734783.144 10 0 60489 76500.00000 0 -23599761.529 4107109.936 -8773744.387 10 0 60489 77400.00000 0 -22388907.948 3745394.029 -11642315.775 10 0 60489 78300.00000 0 -20901995.387 3149664.667 -14284818.753 10 0 60489 79200.00000 0 -19193905.680 2296269.477 -16649978.662 10 0 60489 80100.00000 0 -17325212.464 1173040.727 -18691916.478 10 0 60489 81000.00000 0 -15359701.661 -219937.029 -20371034.503 10 0 60489 81900.00000 0 -13361778.096 -1870077.454 -21654779.398 10 0 60489 82800.00000 0 -11393866.352 -3752572.362 -22518268.396 10 0 60489 83700.00000 0 -9513913.845 -5831190.340 -22944767.305 10 0 60489 84600.00000 0 -7773099.522 -8059561.747 -22926011.647 10 0 60489 85500.00000 0 -6213842.833 -10382897.655 -22462365.164 99